Weather Roundup
Issued by NWS Springfield, MO

Current Version | Previous Version | Text Only | Print | Product List | Glossary On
Versions: 1 2 3 4 5 6 7 8 9 10 11 12 13 14 15 16 17 18 19 20 21 22 23 24 25 26 27 28 29 30 31 32 33 34 35 36 37 38 39 40 41 42 43 44 45 46 47 48 49 50
396
NZUS99 KSGF 181807
HRRSGF

HOURLY WEATHER
NATIONAL WEATHER SERVICE SPRINGFIELD MO
1200 PM CST MON DEC 18 2017

......SGF CWA......

CITY           SKY/WX    TMP DP  RH WIND       PRES   REMARKS
SPRINGFIELD    CLOUDY    48  42  80 SW14      30.12F
6HR MIN TEMP:  44; 6HR MAX TEMP:  50;

JOPLIN         CLOUDY    46  42  86 SW16G23   30.15F
6HR MIN TEMP:  43; 6HR MAX TEMP:  46;

WEST PLAINS    CLOUDY    49  40  71 SW12      30.13F
6HR MIN TEMP:  45; 6HR MAX TEMP:  49;

ROLLA          PTSUNNY   50  41  71 W16       30.07F
6HR MIN TEMP:  43; 6HR MAX TEMP:  50;

OSAGE BEACH    CLOUDY    48  40  73 W8G20     30.10F
BRANSON        PTSUNNY   48  39  71 W7        30.16F

......SURROUNDING SGF CWA......

CITY           SKY/WX    TMP DP  RH WIND       PRES   REMARKS
CHANUTE        MOSUNNY   48  41  76 SW14      30.13F
PARSONS        MOSUNNY   49  42  77 SW9       30.15F
COFFEYVILLE    CLOUDY    47  42  83 S12       30.15F
EMPORIA        SUNNY     52  33  48 SW12      30.08S
GROVE OK       CLOUDY    45  43  93 S6        30.18F
ROGERS AR      CLOUDY    46  41  82 SW7       30.16F
SILOAM SPRINGS CLOUDY    43  41  93 SW5       30.17F FOG
HARRISON AR    SUNNY     52  40  63 SW6       30.15F
NEAR YELLVILLE SUNNY     54  40  59 W5        30.15F

......KANSAS AND MISSOURI......

CITY           SKY/WX    TMP DP  RH WIND       PRES   REMARKS
KANSAS CTY INT SUNNY     48  37  65 SW13      30.03F
DOWNTOWN KC    SUNNY     50  36  58 SW10      30.05F
COLUMBIA       CLOUDY    48  40  73 W20G25    30.06F
SEDALIA        PTSUNNY   50  43  77 SW10G20   30.08F
ST JOSEPH      SUNNY     49  37  63 SW14      30.01F
ST LOUIS       CLOUDY    49  41  74 W13       30.07F
SPIRIT OF STL  CLOUDY    49  41  74 SW12      30.07F
KIRKSVILLE     SUNNY     48  37  65 SW14      30.00F
WICHITA        SUNNY     49  36  61 S14       30.09F
TOPEKA         SUNNY     50  36  58 SW8       30.04F
OLATHE         SUNNY     47  36  65 SW10      30.06F

......TENNESSEE......

CITY           SKY/WX    TMP DP  RH WIND       PRES   REMARKS
MEMPHIS        CLOUDY    47  45  93 SW8       30.20F
NASHVILLE      CLOUDY    51  48  89 W6        30.16F

......ARKANSAS.......

CITY           SKY/WX    TMP DP  RH WIND       PRES   REMARKS
FAYETTEVILLE   PTSUNNY   46  42  86 W5        30.17F
FT SMITH       CLOUDY    50  44  80 W6        30.20F
LITTLE ROCK    CLOUDY    52  46  80 SW5       30.20F

......OKLAHOMA.......

CITY           SKY/WX    TMP DP  RH WIND       PRES   REMARKS
TULSA          CLOUDY    47  43  86 S9        30.18F
PONCA CITY     PTSUNNY   44  40  85 S5        30.14F
MCALESTER      PTSUNNY   51  44  77 SW8       30.20F
OKLAHOMA CITY  CLOUDY    42  42 100 S9        30.16F FOG

......IOWA............

CITY           SKY/WX    TMP DP  RH WIND       PRES   REMARKS
DES MOINES     MOSUNNY   44  34  67 SW21      29.90F
QUAD CITIES    MOSUNNY   44  35  70 W15       29.94F

......ILLINOIS........

CITY           SKY/WX    TMP DP  RH WIND       PRES   REMARKS
QUINCY         PTSUNNY   47  39  74 SW14G23   30.00F
CHICAGO        CLOUDY    42  36  79 W14G26    29.89F




USA.gov is the U.S. government's official web portal to all federal, state and local government web resources and services.